Flag for United Kingdom Weather past 2 weeks in Belfast, Northern Ireland, United Kingdom

Now
39 °F

Scattered showers. Broken clouds.


Feels Like: 28 °F
Forecast: N/A
Wind: 24 mph from Southwest

Location: Belfast / Harbour

Current Time: Mar 2, 2015 at 3:52:59 PM

Latest Report: Mar 2, 2015 at 3:20 PM


Visibility: N/A

Pressure: 29.65 "Hg

Humidity: 70%

Dew point: 30 °F

Location of BelfastLocation

Historic Weather in Belfast — Graph

°F

Belfast temperature yesterday

Maximum temperature yesterday: 45 °F (at 12:50 PM)
Minimum temperature yesterday: 36 °F (at 9:20 PM)
Average temperature yesterday: 40 °F

Past Weeks' High & Low Weather Summary

 TemperatureHumidityPressure
High54 °F (Feb 18, 1:20 PM)94% (Feb 25, 1:20 PM)30.51 "Hg (Feb 25, 1:20 PM)
Low32 °F (Mar 2, 7:50 AM)57% (Feb 27, 4:20 PM)28.74 "Hg (Feb 23, 2:50 PM)
Average43 °F78%29.66 "Hg
* Reported Feb 15 2:20 PM — Mar 2 2:50 PM, Belfast, Weather by CustomWeather, © 2015

Note: Actual official high and low records may vary slightly from our data, if they occured in-between our weather recording intervals... More about our weather records

Advertising

Belfast weather history for previous 24 hours

 ConditionsComfort  
Time TempWeatherWind HumidityBarometerVisibility
2:50 PM
Mon, Mar 2
41 °FScattered showers. Broken clouds.21 mph66%29.65 "HgN/A
2:20 PM41 °FScattered clouds.22 mph61%29.62 "HgN/A
1:50 PM41 °FScattered clouds.22 mph61%29.62 "HgN/A
1:20 PM41 °FScattered clouds.22 mph61%29.62 "HgN/A
12:50 PM41 °FScattered clouds.24 mph66%29.59 "HgN/A
12:20 PM41 °FScattered clouds.20 mph66%29.59 "HgN/A
11:50 AM41 °FScattered clouds.21 mph66%29.56 "HgN/A
11:20 AM39 °FScattered clouds.17 mph65%29.56 "HgN/A
10:50 AM39 °FScattered clouds.16 mph70%29.53 "HgN/A
10:20 AM37 °FScattered clouds.16 mph75%29.53 "HgN/A
9:50 AM37 °FScattered clouds.17 mph75%29.50 "HgN/A
9:20 AM36 °FScattered clouds.16 mph81%29.47 "HgN/A
8:50 AM36 °FScattered clouds.14 mph81%29.47 "HgN/A
8:20 AM34 °FPartly sunny.13 mph87%29.45 "HgN/A
7:50 AM32 °FSnow showers. Partly sunny.18 mph93%29.42 "Hg1 mi
7:20 AM34 °FScattered showers. Broken clouds.21 mph87%29.39 "HgN/A
6:50 AM34 °FSnow flurries. Partly cloudy.20 mph87%29.36 "HgN/A
6:20 AM34 °FPassing clouds.16 mph87%29.36 "HgN/A
9:50 PM
Sun, Mar 1
36 °FPassing clouds.14 mph81%29.36 "HgN/A
9:20 PM36 °FSprinkles. Passing clouds.15 mph81%29.36 "HgN/A
8:50 PM37 °FPassing clouds.17 mph75%29.33 "HgN/A
8:20 PM37 °FPassing clouds.21 mph75%29.33 "HgN/A
7:20 PM39 °FPassing clouds.20 mph70%29.30 "HgN/A
6:50 PM39 °FPassing clouds.16 mph70%29.30 "HgN/A
6:20 PM39 °FPassing clouds.20 mph70%29.30 "HgN/A
5:50 PM39 °FPassing clouds.18 mph70%29.27 "HgN/A
5:20 PM39 °FScattered showers. Passing clouds.21 mph70%29.27 "HgN/A
4:50 PM39 °FScattered showers. Passing clouds.23 mph70%29.27 "HgN/A
4:20 PM41 °FPassing clouds.18 mph66%29.27 "HgN/A
3:50 PM41 °FSprinkles. Scattered clouds.13 mph81%29.24 "HgN/A
3:20 PM43 °FSprinkles. Scattered clouds.15 mph71%29.24 "HgN/A
Weather by CustomWeather, © 2015

See weather overviewHow to use our weather pages